TimeCDT,TemperatureF,Dew PointF,Humidity,Sea Level PressureIn,VisibilityMPH,Wind Direction,Wind SpeedMPH,Gust SpeedMPH,PrecipitationIn,Events,Conditions,WindDirDegrees,DateUTC
12:15 AM,72.1,66.6,83,30.18,10.0,ESE,8.1,-,N/A,,Overcast,120,2013-04-27 05:15:00
12:35 AM,72.0,66.4,83,30.16,10.0,SE,9.2,-,N/A,,Overcast,130,2013-04-27 05:35:00
12:55 AM,71.4,66.4,84,30.15,10.0,SE,5.8,-,N/A,,Overcast,130,2013-04-27 05:55:00
1:15 AM,71.1,66.6,86,30.14,10.0,SE,11.5,16.1,N/A,,Overcast,140,2013-04-27 06:15:00
1:35 AM,71.6,67.1,86,30.13,10.0,SE,10.4,-,N/A,,Overcast,140,2013-04-27 06:35:00
1:55 AM,71.8,67.3,86,30.12,10.0,SE,11.5,18.4,N/A,,Overcast,140,2013-04-27 06:55:00
2:15 AM,72.0,67.6,86,30.12,10.0,SSE,10.4,17.3,N/A,,Overcast,150,2013-04-27 07:15:00
2:35 AM,72.1,67.6,86,30.12,10.0,SSE,9.2,-,N/A,,Overcast,160,2013-04-27 07:35:00
2:55 AM,72.1,67.6,86,30.11,10.0,SSE,8.1,-,N/A,,Overcast,150,2013-04-27 07:55:00
3:15 AM,72.1,67.6,86,30.12,10.0,SSE,5.8,-,N/A,,Overcast,150,2013-04-27 08:15:00
3:35 AM,72.0,67.5,86,30.11,10.0,SSE,6.9,-,N/A,,Overcast,160,2013-04-27 08:35:00
3:55 AM,71.2,67.1,87,30.10,10.0,SSE,3.5,-,N/A,,Overcast,150,2013-04-27 08:55:00
4:15 AM,70.9,67.1,88,30.10,10.0,Calm,Calm,-,N/A,,Overcast,0,2013-04-27 09:15:00
4:35 AM,70.9,67.1,88,30.11,7.0,Calm,Calm,-,N/A,,Overcast,0,2013-04-27 09:35:00
4:55 AM,71.1,67.3,88,30.11,7.0,Calm,Calm,-,N/A,,Overcast,0,2013-04-27 09:55:00
5:15 AM,71.6,67.6,87,30.10,7.0,Calm,Calm,-,N/A,,Overcast,0,2013-04-27 10:15:00
6:15 AM,71.2,67.5,88,30.10,1.0,SE,3.5,-,N/A,,Overcast,140,2013-04-27 11:15:00
6:55 AM,71.2,67.5,88,30.13,0.5,Calm,Calm,-,N/A,Fog,Fog,0,2013-04-27 11:55:00
7:15 AM,71.6,68.0,88,30.14,1.0,Calm,Calm,-,N/A,,Overcast,0,2013-04-27 12:15:00
7:55 AM,72.0,68.4,88,30.15,2.5,Calm,Calm,-,N/A,,Overcast,0,2013-04-27 12:55:00
8:15 AM,72.5,68.9,88,30.15,7.0,SE,5.8,-,N/A,,Overcast,140,2013-04-27 13:15:00
8:35 AM,73.0,68.9,87,30.15,10.0,SSE,4.6,-,N/A,,Overcast,150,2013-04-27 13:35:00
8:55 AM,73.9,67.8,81,30.16,10.0,South,5.8,-,N/A,,Overcast,180,2013-04-27 13:55:00
9:15 AM,74.7,67.3,78,30.16,10.0,South,5.8,-,N/A,,Overcast,190,2013-04-27 14:15:00
9:55 AM,78.3,66.6,67,30.16,10.0,South,10.4,-,N/A,,Scattered Clouds,170,2013-04-27 14:55:00
10:15 AM,78.1,65.7,65,30.16,10.0,SSE,6.9,-,N/A,,Mostly Cloudy,150,2013-04-27 15:15:00
10:35 AM,78.8,65.3,63,30.15,10.0,SSE,10.4,16.1,N/A,,Mostly Cloudy,160,2013-04-27 15:35:00
10:55 AM,80.1,64.9,60,30.15,10.0,SSE,9.2,-,N/A,,Mostly Cloudy,160,2013-04-27 15:55:00
11:15 AM,80.4,64.4,58,30.15,10.0,SSE,13.8,17.3,N/A,,Mostly Cloudy,150,2013-04-27 16:15:00
11:35 AM,80.4,63.3,56,30.15,10.0,South,12.7,19.6,N/A,,Scattered Clouds,170,2013-04-27 16:35:00
11:55 AM,80.6,63.1,55,30.16,10.0,SSE,10.4,-,N/A,,Mostly Cloudy,160,2013-04-27 16:55:00
12:15 PM,81.0,62.6,53,30.15,10.0,SSE,12.7,17.3,N/A,,Mostly Cloudy,160,2013-04-27 17:15:00
12:35 PM,82.2,60.1,47,30.14,10.0,South,11.5,-,N/A,,Scattered Clouds,170,2013-04-27 17:35:00
12:55 PM,81.9,61.7,50,30.14,10.0,SSE,12.7,-,N/A,,Scattered Clouds,150,2013-04-27 17:55:00
1:15 PM,81.5,62.8,53,30.13,10.0,SSE,11.5,18.4,N/A,,Scattered Clouds,160,2013-04-27 18:15:00
1:35 PM,81.9,63.1,53,30.13,10.0,SSE,13.8,17.3,N/A,,Scattered Clouds,160,2013-04-27 18:35:00
1:55 PM,82.2,63.1,52,30.12,10.0,South,11.5,-,N/A,,Scattered Clouds,170,2013-04-27 18:55:00
2:15 PM,81.7,62.6,52,30.11,10.0,SSE,9.2,-,N/A,,Mostly Cloudy,160,2013-04-27 19:15:00
2:35 PM,81.7,61.9,51,30.11,10.0,South,9.2,17.3,N/A,,Overcast,190,2013-04-27 19:35:00
2:55 PM,81.5,61.9,51,30.10,10.0,SSE,9.2,-,N/A,,Mostly Cloudy,160,2013-04-27 19:55:00
3:15 PM,81.3,61.9,52,30.09,10.0,SSE,10.4,-,N/A,,Mostly Cloudy,150,2013-04-27 20:15:00
3:35 PM,81.7,61.2,50,30.08,10.0,South,11.5,16.1,N/A,,Scattered Clouds,170,2013-04-27 20:35:00
3:55 PM,80.4,61.9,53,30.08,10.0,SSE,13.8,17.3,N/A,,Mostly Cloudy,160,2013-04-27 20:55:00
4:15 PM,80.6,61.0,51,30.07,10.0,SSE,11.5,19.6,N/A,,Mostly Cloudy,160,2013-04-27 21:15:00
4:35 PM,80.4,61.7,53,30.06,10.0,SSE,12.7,-,N/A,,Scattered Clouds,160,2013-04-27 21:35:00
4:55 PM,79.2,61.7,55,30.06,10.0,SSE,10.4,17.3,N/A,,Mostly Cloudy,150,2013-04-27 21:55:00
5:15 PM,78.3,62.4,58,30.06,10.0,SSE,10.4,-,N/A,,Mostly Cloudy,160,2013-04-27 22:15:00
5:55 PM,77.0,63.3,63,30.05,10.0,SSE,10.4,-,N/A,Thunderstorm,Clear,160,2013-04-27 22:55:00
6:15 PM,76.5,63.9,65,30.06,10.0,South,6.9,-,N/A,,Scattered Clouds,170,2013-04-27 23:15:00
6:35 PM,76.3,64.4,67,30.06,10.0,South,6.9,-,N/A,Thunderstorm,Thunderstorm,170,2013-04-27 23:35:00
6:55 PM,75.6,64.8,69,30.05,10.0,South,6.9,-,N/A,,Scattered Clouds,170,2013-04-27 23:55:00
7:15 PM,74.7,65.3,73,30.03,10.0,SSE,4.6,-,N/A,,Clear,150,2013-04-28 00:15:00
7:35 PM,74.5,65.8,74,30.01,10.0,ESE,5.8,-,N/A,,Scattered Clouds,120,2013-04-28 00:35:00
7:55 PM,74.3,66.6,77,30.03,10.0,South,5.8,-,N/A,,Scattered Clouds,170,2013-04-28 00:55:00
8:15 PM,74.5,66.6,76,30.06,10.0,WSW,3.5,-,N/A,,Clear,240,2013-04-28 01:15:00
8:35 PM,74.3,67.3,79,30.05,10.0,SSW,3.5,-,N/A,,Clear,210,2013-04-28 01:35:00
8:55 PM,74.3,67.5,79,30.06,10.0,South,4.6,-,N/A,,Clear,190,2013-04-28 01:55:00
9:15 PM,73.4,67.8,83,30.05,10.0,South,5.8,-,N/A,,Clear,180,2013-04-28 02:15:00
9:35 PM,73.4,68.0,83,30.06,10.0,South,5.8,-,N/A,,Mostly Cloudy,190,2013-04-28 02:35:00
9:55 PM,73.4,68.2,84,30.05,10.0,SSE,5.8,-,N/A,,Scattered Clouds,150,2013-04-28 02:55:00
10:15 PM,73.6,68.9,85,30.05,10.0,South,8.1,-,N/A,Thunderstorm,Scattered Clouds,170,2013-04-28 03:15:00
10:35 PM,73.6,68.2,83,30.06,10.0,South,6.9,-,N/A,Thunderstorm,Thunderstorm,180,2013-04-28 03:35:00
10:55 PM,73.8,68.4,83,30.06,10.0,SW,5.8,-,N/A,Thunderstorm,Thunderstorm,220,2013-04-28 03:55:00
11:15 PM,73.6,68.0,83,30.06,10.0,SW,5.8,-,N/A,Thunderstorm,Thunderstorm,220,2013-04-28 04:15:00
11:55 PM,73.0,68.0,84,30.05,10.0,South,4.6,-,N/A,,Clear,180,2013-04-28 04:55:00